Weather History for Providence, RI

Change the Weather History Date:

Wednesday, November 20, 2013

  Actual Average Record
Temperature  
Mean Temperature 34 °F 43 °F  
Max Temperature 43 °F 52 °F 72 °F (1991)
Min Temperature 25 °F 35 °F 17 °F (1986)
Degree Days  
Heating Degree Days 31 22  
Month to date heating degree days 393 380  
Since 1 July heating degree days 806 838  
Cooling Degree Days 0 0  
Month to date cooling degree days 0 0  
Year to date cooling degree days 892 744  
Moisture  
Dew Point 12 °F    
Average Humidity 40    
Maximum Humidity 57    
Minimum Humidity 22    
Precipitation  
Precipitation 0.00 in 0.16 in 2.52 in (1988)
Month to date precipitation 1.11 2.93  
Year to date precipitation 37.12 41.38  
Snow  
Snow 0.00 in 0.00 in 1.70 in (1961)
Month to date snowfall 0.1 0.5  
Since 1 July snowfall 0.1 0.5  
Since 1 September snowfall 0.1 0.5  
Snow Depth 0.00 in    
Sea Level Pressure  
Sea Level Pressure 30.51 in    
Wind  
Wind Speed 7 mph (NNW)    
Max Wind Speed 17 mph    
Max Gust Speed 23 mph    
Visibility 10 miles    
Events      
T = Trace of Precipitation, MM = Missing Value Source: NWS Daily Summary

Daily Weather History Graph

Daily Weather History Graph

Search for Another Location

Airport:

Trip Planner

Search our weather history database for the weather conditions in past years. The results will help you decide how hot, cold, wet, or windy it might be!

Date:

Astronomy

Nov. 20, 2013 Rise Set
Actual Time 6:41 AM EST 4:21 PM EST
Civil Twilight 6:10 AM EST 4:51 PM EST
Nautical Twilight 5:36 AM EST 5:25 PM EST
Astronomical Twilight 5:03 AM EST 5:58 PM EST
Moon 7:01 PM EST (11/20) 9:04 AM EST (11/20)
Length of Visible Light 10h 40m
Length of Day
9h 40m
Waning Gibbous, 91% of the Moon is Illuminated
Nov 20
Waning Gibbous
Nov 25
Last Quarter
Dec 2
New
Dec 9
First Quarter
Dec 17
Full

Hourly Weather History & Observations

Time (EST) Temp. Windchill Dew Point Humidity Pressure Visibility Wind Dir Wind Speed Gust Speed Precip Events Conditions
12:51 AM 32.0 °F 24.2 °F 15.1 °F 50% 30.32 in 10.0 mi NNW 9.2 mph - N/A   Clear
1:51 AM 30.9 °F 22.8 °F 14.0 °F 50% 30.35 in 10.0 mi NNW 9.2 mph - N/A   Clear
2:51 AM 30.0 °F 21.7 °F 14.0 °F 51% 30.36 in 10.0 mi NNW 9.2 mph - N/A   Clear
3:51 AM 30.0 °F 21.7 °F 12.9 °F 49% 30.38 in 10.0 mi NNW 9.2 mph - N/A   Clear
4:51 AM 28.9 °F 20.4 °F 12.9 °F 51% 30.40 in 10.0 mi NNW 9.2 mph - N/A   Clear
5:51 AM 28.0 °F 19.3 °F 12.9 °F 53% 30.44 in 10.0 mi NNW 9.2 mph - N/A   Partly Cloudy
6:51 AM 28.0 °F 22.8 °F 12.9 °F 53% 30.47 in 10.0 mi NNW 4.6 mph - N/A   Scattered Clouds
7:51 AM 30.0 °F 21.7 °F 14.0 °F 51% 30.50 in 10.0 mi NNW 9.2 mph - N/A   Scattered Clouds
8:51 AM 32.0 °F 21.6 °F 14.0 °F 48% 30.53 in 10.0 mi NNW 15.0 mph - N/A   Mostly Cloudy
9:51 AM 36.0 °F 27.1 °F 14.0 °F 41% 30.54 in 10.0 mi NNW 13.8 mph - N/A   Mostly Cloudy
10:51 AM 37.9 °F 30.5 °F 12.0 °F 35% 30.54 in 10.0 mi North 11.5 mph - N/A   Mostly Cloudy
11:51 AM 39.9 °F 33.9 °F 10.9 °F 31% 30.52 in 10.0 mi NNW 9.2 mph - N/A   Mostly Cloudy
12:51 PM 41.0 °F 33.9 °F 9.0 °F 27% 30.53 in 10.0 mi North 12.7 mph 18.4 mph N/A   Mostly Cloudy
1:51 PM 42.1 °F 36.6 °F 9.0 °F 26% 30.52 in 10.0 mi NNE 9.2 mph - N/A   Mostly Cloudy
2:51 PM 42.1 °F 36.6 °F 7.0 °F 24% 30.53 in 10.0 mi North 9.2 mph - N/A   Mostly Cloudy
3:51 PM 41.0 °F 37.1 °F 7.0 °F 25% 30.54 in 10.0 mi NNW 5.8 mph - N/A   Scattered Clouds
4:51 PM 37.0 °F 33.3 °F 7.0 °F 29% 30.56 in 10.0 mi North 4.6 mph - N/A   Scattered Clouds
5:51 PM 34.0 °F - 10.0 °F 37% 30.58 in 10.0 mi Calm Calm - N/A   Partly Cloudy
6:51 PM 33.1 °F 30.0 °F 12.9 °F 43% 30.59 in 10.0 mi NW 3.5 mph - N/A   Partly Cloudy
7:51 PM 33.1 °F 27.7 °F 10.9 °F 40% 30.60 in 10.0 mi North 5.8 mph - N/A   Partly Cloudy
8:51 PM 27.0 °F - 14.0 °F 58% 30.61 in 10.0 mi Calm Calm - N/A   Clear
9:51 PM 30.0 °F 25.2 °F 12.0 °F 47% 30.61 in 10.0 mi NNW 4.6 mph - N/A   Partly Cloudy
10:51 PM 28.9 °F - 12.0 °F 49% 30.62 in 10.0 mi Calm Calm - N/A   Partly Cloudy
11:51 PM 28.0 °F - 15.1 °F 58% 30.63 in 10.0 mi Calm Calm - N/A   Partly Cloudy